Regional Weather Roundup
Issued by NWS State College, PA

Home | Current Version | Previous Version | Text Only | Print | Product List | Glossary On
Versions: 1 2 3 4 5 6 7 8 9 10 11 12 13 14 15 16 17 18 19 20 21 22 23 24 25 26 27 28 29 30 31 32 33 34 35 36 37 38 39 40 41 42 43 44 45 46 47 48 49 50
000
ASUS41 KCTP 010203
RWRCTP

REGIONAL WEATHER ROUNDUP
NATIONAL WEATHER SERVICE STATE COLLEGE PA
1000 PM EDT THU JUL 31 2014

Note: "fair" indicates few or no clouds below 12,000 feet with no
significant weather and/or obstructions to visibility.

* = STATION THAT DOES NOT REPORT PRECIPITATION /E.G. RAIN...SNOW...ETC/
    THUNDER OR FOG.

PAZ002>004-007>009-013>016-020>023-029>032-010300-
WESTERN PENNSYLVANIA

CITY           SKY/WX    TMP DP  RH WIND       PRES   REMARKS
ERIE           CLEAR     66  55  67 S6        30.09R
MEADVILLE      CLEAR     64  51  62 CALM      30.12R
FRANKLIN*      CLEAR     63  54  72 CALM      30.15R
NEW CASTLE     FAIR      63  59  87 CALM      30.13R
BEAVER COUNTY  NOT AVBL
BUTLER*        CLEAR     64  59  82 CALM      30.15R
PITTSBURGH INT PTCLDY    69  62  78 CALM      30.13R
PITTSBURGH     MOCLDY    73  58  59 CALM      30.13R
INDIANA*       CLOUDY    66  64  94 CALM      30.19R
LATROBE        PTCLDY    64  63  94 CALM      30.15
WASHINGTON CO* PTCLDY    63  61  94 CALM      30.14R
$$

PAZ004>006-010>012-017>019-024>028-033>037-041-042-045-046-049>053-010300-
CENTRAL PENNSYLVANIA

CITY           SKY/WX    TMP DP  RH WIND       PRES   REMARKS
BRADFORD       CLEAR     56  53  90 CALM      30.16R
DUBOIS         PTCLDY    66  60  81 S3        30.15R
CLEARFIELD     PTCLDY    65  61  87 CALM      30.16R
JOHNSTOWN      CLEAR     66  56  70 SW3       30.18R
ALTOONA        CLEAR     63  60  90 CALM      30.16R
STATE COLLEGE  CLOUDY    65  63  94 CALM      30.15R
WILLIAMSPORT   PTCLDY    71  62  73 CALM      30.11R
SELINSGROVE    PTCLDY    63  62  97 CALM      30.13S FOG
FT INDIANTOWN  MOCLDY    67  64  89 NE2       30.13R
CAPITAL CITY   PTCLDY    72  61  68 CALM      30.11R
HARRISBURG     PTCLDY    74  65  73 S3        30.11
YORK           PTCLDY    66  62  87 CALM      30.12R
$$

PAZ038>040-043-044-047-048-054-055-060>062-067>071-010300-
EASTERN PENNSYLVANIA

CITY           SKY/WX    TMP DP  RH WIND       PRES   REMARKS
SCRANTON       CLOUDY    72  56  57 CALM      30.14R
MOUNT POCONO   CLOUDY    64  59  83 W3        30.19R
ALLENTOWN      CLOUDY    70  61  73 CALM      30.13R
QUAKERTOWN*    PTCLDY    66  63  88 CALM      30.16R
READING        PTCLDY    72  63  73 CALM      30.13R
LANCASTER      MOCLDY    73  63  70 S6        30.13R
COATESVILLE    PTCLDY    70  66  88 CALM      30.16R
POTTSTOWN      PTCLDY    73  62  68 CALM      30.15R
BLUE BELL      PTCLDY    68  64  88 CALM      30.14R
DOYLESTOWN     CLEAR     68  62  81 CALM      30.14R
WILLOW GROVE   NOT AVBL
NORTH PHILA    PTCLDY    78  61  55 S3        30.15R
PHILADELPHIA   MOCLDY    76  66  71 S7        30.14R
$$



USA.gov is the U.S. government's official web portal to all federal, state and local government web resources and services.